timestamp,wind_dir_avg,wind_spd_avg,wind_spd_max_dir,wind_spd_gust,battery_voltage,lat,long
2021-07-09 00:04:01+00:00,78.0,3.13,81.0,4.0,13.29,47.59359,-54.27349
2021-07-09 00:14:01+00:00,95.0,2.5,120.0,4.69,12.81,47.59359,-54.27349
2021-07-09 00:24:01+00:00,95.0,2.76,127.0,3.81,12.81,47.59359,-54.27349
2021-07-09 00:34:01+00:00,100.0,2.07,109.0,4.18,12.81,47.59359,-54.27349
2021-07-09 00:44:01+00:00,95.0,2.97,108.0,4.13,12.81,47.59359,-54.27349
2021-07-09 00:54:01+00:00,114.0,2.89,114.0,3.76,12.81,47.59359,-54.27349
2021-07-09 01:04:01+00:00,87.0,1.99,74.0,2.91,12.81,47.59359,-54.27349
2021-07-09 01:14:00+00:00,105.0,2.77,107.0,4.23,12.65,47.59359,-54.27349
2021-07-09 01:24:00+00:00,99.0,1.41,68.0,2.2,12.65,47.59359,-54.27349
2021-07-09 01:34:00+00:00,111.0,2.24,110.0,3.76,12.65,47.59359,-54.27349
2021-07-09 01:44:00+00:00,87.0,2.26,74.0,3.33,12.65,47.59359,-54.27349
2021-07-09 01:54:00+00:00,96.0,2.73,114.0,3.38,12.65,47.59359,-54.27349
2021-07-09 02:04:00+00:00,76.0,1.79,70.0,2.69,12.65,47.59359,-54.27349
2021-07-09 02:14:00+00:00,96.0,2.11,98.0,3.02,12.65,47.59359,-54.27349
2021-07-09 02:24:00+00:00,89.0,2.0,109.0,3.05,12.65,47.59359,-54.27349
2021-07-09 02:34:00+00:00,74.0,2.06,67.0,2.36,12.65,47.59359,-54.27349
2021-07-09 02:44:00+00:00,63.0,2.64,64.0,3.19,12.65,47.59359,-54.27349
2021-07-09 02:54:00+00:00,70.0,2.96,76.0,3.46,12.65,47.59359,-54.27349
2021-07-09 03:04:00+00:00,82.0,2.49,71.0,3.26,12.65,47.59359,-54.27349
2021-07-09 03:14:00+00:00,102.0,2.05,98.0,2.86,12.57,47.59359,-54.27349
2021-07-09 03:24:00+00:00,97.0,1.82,86.0,2.25,12.57,47.59359,-54.27349
2021-07-09 03:34:00+00:00,99.0,1.66,107.0,2.02,12.57,47.59359,-54.27349
2021-07-09 03:44:00+00:00,127.0,1.83,128.0,2.17,12.57,47.59359,-54.27349
2021-07-09 03:54:00+00:00,110.0,0.81,125.0,1.35,12.57,47.59359,-54.27349
2021-07-09 04:04:00+00:00,139.0,1.58,140.0,1.71,12.57,47.59359,-54.27349
2021-07-09 04:14:01+00:00,99.0,0.95,85.0,1.34,12.57,47.59359,-54.27349
2021-07-09 04:24:01+00:00,122.0,1.06,119.0,1.3,12.57,47.59359,-54.27349
2021-07-09 04:34:01+00:00,102.0,1.14,109.0,1.37,12.57,47.59359,-54.27349
2021-07-09 04:44:01+00:00,112.0,1.13,118.0,1.4,12.57,47.59359,-54.27349
2021-07-09 04:54:01+00:00,113.0,0.72,90.0,1.08,12.57,47.59359,-54.27349
2021-07-09 05:04:01+00:00,127.0,1.52,133.0,1.76,12.57,47.59359,-54.27349
2021-07-09 05:14:00+00:00,123.0,1.5,124.0,2.11,12.57,47.59359,-54.27349
2021-07-09 05:24:00+00:00,123.0,1.64,122.0,1.99,12.57,47.59359,-54.27349
2021-07-09 05:34:00+00:00,144.0,1.57,134.0,1.9,12.57,47.59359,-54.27349
2021-07-09 05:44:00+00:00,153.0,1.5,146.0,1.71,12.57,47.59359,-54.27349
2021-07-09 05:54:00+00:00,162.0,1.54,162.0,1.73,12.57,47.59359,-54.27349
2021-07-09 06:04:00+00:00,169.0,1.97,177.0,2.15,12.57,47.59359,-54.27349
2021-07-09 06:14:00+00:00,182.0,1.79,187.0,2.23,12.57,47.59359,-54.27349
2021-07-09 06:24:00+00:00,188.0,2.07,189.0,2.27,12.57,47.59359,-54.27349
2021-07-09 06:34:00+00:00,146.0,2.59,135.0,3.43,12.57,47.59359,-54.27349
2021-07-09 06:44:00+00:00,254.0,3.16,249.0,3.39,12.57,47.59359,-54.27349
2021-07-09 06:54:00+00:00,251.0,2.83,254.0,3.38,12.57,47.59359,-54.27349
2021-07-09 07:04:00+00:00,234.0,4.4,238.0,4.8,12.57,47.59359,-54.27349
2021-07-09 07:14:01+00:00,211.0,2.81,227.0,4.24,12.49,47.59359,-54.27349
2021-07-09 07:24:01+00:00,230.0,3.26,233.0,3.9,12.49,47.59359,-54.27349
2021-07-09 07:34:01+00:00,231.0,3.37,233.0,4.29,12.49,47.59359,-54.27349
2021-07-09 07:44:01+00:00,241.0,3.95,243.0,4.29,12.49,47.59359,-54.27349
2021-07-09 07:54:01+00:00,207.0,2.03,234.0,3.64,12.49,47.59359,-54.27349
2021-07-09 08:04:01+00:00,203.0,2.95,229.0,3.94,12.49,47.59359,-54.27349
2021-07-09 08:14:00+00:00,225.0,2.91,234.0,4.2,12.49,47.59359,-54.27349
2021-07-09 08:24:00+00:00,165.0,1.96,226.0,3.08,12.49,47.59359,-54.27349
2021-07-09 08:34:00+00:00,234.0,3.5,235.0,3.91,12.49,47.59359,-54.27349
2021-07-09 08:44:00+00:00,222.0,3.63,231.0,4.29,12.49,47.59359,-54.27349
2021-07-09 08:54:00+00:00,230.0,3.84,238.0,4.4,12.49,47.59359,-54.27349
2021-07-09 09:04:00+00:00,205.0,3.83,219.0,4.82,12.49,47.59359,-54.27349
2021-07-09 09:14:00+00:00,222.0,4.52,234.0,5.18,12.97,47.59359,-54.27349
2021-07-09 09:24:00+00:00,212.0,3.35,220.0,3.82,12.97,47.59359,-54.27349
2021-07-09 09:34:00+00:00,201.0,3.47,211.0,3.94,12.97,47.59359,-54.27349
2021-07-09 09:44:00+00:00,208.0,3.92,210.0,4.48,12.97,47.59359,-54.27349
2021-07-09 09:54:00+00:00,212.0,2.59,215.0,3.15,12.97,47.59359,-54.27349
2021-07-09 10:04:00+00:00,203.0,2.82,206.0,3.12,12.97,47.59359,-54.27349
2021-07-09 10:14:01+00:00,197.0,2.42,201.0,2.66,13.53,47.59359,-54.27349
2021-07-09 10:24:01+00:00,204.0,2.32,201.0,2.6,13.53,47.59359,-54.27349
2021-07-09 10:34:01+00:00,192.0,2.14,196.0,2.6,13.53,47.59359,-54.27349
2021-07-09 10:44:01+00:00,214.0,1.69,212.0,2.28,13.53,47.59359,-54.27349
2021-07-09 10:54:01+00:00,229.0,2.34,227.0,2.59,13.53,47.59359,-54.27349
2021-07-09 11:04:01+00:00,236.0,1.7,241.0,1.86,13.53,47.59359,-54.27349
2021-07-09 11:14:01+00:00,237.0,2.0,227.0,2.38,13.76,47.59359,-54.27349
2021-07-09 11:24:01+00:00,219.0,1.77,220.0,2.07,13.76,47.59359,-54.27349
2021-07-09 11:34:01+00:00,214.0,2.68,215.0,3.01,13.76,47.59359,-54.27349
2021-07-09 11:44:01+00:00,225.0,3.72,227.0,4.07,13.76,47.59359,-54.27349
2021-07-09 11:54:01+00:00,225.0,4.91,226.0,5.31,13.76,47.59359,-54.27349
2021-07-09 12:04:01+00:00,224.0,5.34,219.0,5.78,13.76,47.59359,-54.27349
2021-07-09 12:14:01+00:00,225.0,5.3,227.0,5.94,13.84,47.59359,-54.27349
2021-07-09 12:24:01+00:00,228.0,4.71,231.0,5.32,13.84,47.59359,-54.27349
2021-07-09 12:34:01+00:00,223.0,4.19,225.0,4.67,13.84,47.59359,-54.27349
2021-07-09 12:44:01+00:00,222.0,4.79,220.0,5.63,13.84,47.59359,-54.27349
2021-07-09 12:54:01+00:00,223.0,4.56,219.0,5.08,13.84,47.59359,-54.27349
2021-07-09 13:04:01+00:00,210.0,3.87,223.0,4.57,13.84,47.59359,-54.27349
2021-07-09 13:14:01+00:00,228.0,4.81,232.0,5.37,14.24,47.59359,-54.27349
2021-07-09 13:24:01+00:00,223.0,5.39,220.0,6.0,14.24,47.59359,-54.27349
2021-07-09 13:34:01+00:00,221.0,5.95,219.0,6.56,14.24,47.59359,-54.27349
2021-07-09 13:44:01+00:00,229.0,4.95,222.0,6.07,14.24,47.59359,-54.27349
2021-07-09 13:54:01+00:00,233.0,6.53,231.0,7.65,14.24,47.59359,-54.27349
2021-07-09 14:04:01+00:00,229.0,8.08,228.0,8.96,14.24,47.59359,-54.27349
2021-07-09 14:14:01+00:00,225.0,6.22,226.0,7.25,14.24,47.59359,-54.27349
2021-07-09 14:24:01+00:00,233.0,6.38,225.0,7.39,14.24,47.59359,-54.27349
2021-07-09 14:34:01+00:00,231.0,6.37,227.0,7.99,14.24,47.59359,-54.27349
2021-07-09 14:44:01+00:00,229.0,7.99,231.0,9.41,14.24,47.59359,-54.27349
2021-07-09 14:54:01+00:00,223.0,7.25,222.0,8.29,14.24,47.59359,-54.27349
2021-07-09 15:04:01+00:00,227.0,8.42,229.0,9.34,14.24,47.59359,-54.27349
2021-07-09 15:14:01+00:00,223.0,8.66,219.0,9.87,14.24,47.59359,-54.27349
2021-07-09 15:24:01+00:00,226.0,8.48,233.0,9.76,14.24,47.59359,-54.27349
2021-07-09 15:34:01+00:00,226.0,9.85,231.0,11.32,14.24,47.59359,-54.27349
2021-07-09 15:44:01+00:00,226.0,9.76,227.0,11.13,14.24,47.59359,-54.27349
2021-07-09 15:54:01+00:00,223.0,8.7,232.0,10.34,14.24,47.59359,-54.27349
2021-07-09 16:04:01+00:00,222.0,7.83,218.0,8.79,14.24,47.59359,-54.27349
2021-07-09 16:14:01+00:00,222.0,8.32,225.0,8.96,14.16,47.59359,-54.27349
2021-07-09 16:24:01+00:00,223.0,8.44,227.0,9.95,14.16,47.59359,-54.27349
2021-07-09 16:34:01+00:00,222.0,8.86,221.0,10.01,14.16,47.59359,-54.27349
2021-07-09 16:44:01+00:00,224.0,8.75,226.0,10.29,14.16,47.59359,-54.27349
2021-07-09 16:54:01+00:00,221.0,9.98,222.0,11.59,14.16,47.59359,-54.27349
2021-07-09 17:04:01+00:00,227.0,9.98,225.0,12.77,14.16,47.59359,-54.27349
2021-07-09 17:14:01+00:00,223.0,11.59,226.0,13.08,13.76,47.59359,-54.27349
2021-07-09 17:24:01+00:00,225.0,12.19,228.0,13.33,13.76,47.59359,-54.27349
2021-07-09 17:34:01+00:00,220.0,11.38,223.0,13.56,13.76,47.59359,-54.27349
2021-07-09 17:44:01+00:00,222.0,12.96,229.0,15.18,13.76,47.59359,-54.27349
2021-07-09 17:54:01+00:00,225.0,10.32,230.0,11.55,13.76,47.59359,-54.27349
2021-07-09 18:04:01+00:00,222.0,9.33,227.0,10.78,13.76,47.59359,-54.27349
2021-07-09 18:14:01+00:00,229.0,9.54,231.0,11.03,13.84,47.59359,-54.27349
2021-07-09 18:24:01+00:00,227.0,7.95,225.0,9.02,13.84,47.59359,-54.27349
2021-07-09 18:34:01+00:00,227.0,9.33,228.0,10.78,13.84,47.59359,-54.27349
2021-07-09 18:44:01+00:00,224.0,9.72,216.0,11.79,13.84,47.59359,-54.27349
2021-07-09 18:54:01+00:00,225.0,9.36,224.0,10.74,13.84,47.59359,-54.27349
2021-07-09 19:04:01+00:00,225.0,9.82,226.0,11.83,13.84,47.59359,-54.27349
2021-07-09 19:14:01+00:00,220.0,9.55,216.0,11.19,13.92,47.59359,-54.27349
2021-07-09 19:24:01+00:00,217.0,10.03,215.0,11.58,13.92,47.59359,-54.27349
2021-07-09 19:34:01+00:00,220.0,10.29,221.0,12.4,13.92,47.59359,-54.27349
2021-07-09 19:44:01+00:00,218.0,10.52,227.0,12.35,13.92,47.59359,-54.27349
2021-07-09 19:54:01+00:00,218.0,11.43,217.0,13.64,13.92,47.59359,-54.27349
2021-07-09 20:04:01+00:00,223.0,10.99,224.0,12.53,13.92,47.59359,-54.27349
2021-07-09 20:14:01+00:00,216.0,12.72,223.0,15.03,13.76,47.59359,-54.27349
2021-07-09 20:24:01+00:00,218.0,11.78,221.0,12.97,13.76,47.59359,-54.27349
2021-07-09 20:34:01+00:00,218.0,10.81,220.0,12.73,13.76,47.59359,-54.27349
2021-07-09 20:44:01+00:00,214.0,10.96,214.0,11.8,13.76,47.59359,-54.27349
2021-07-09 20:54:01+00:00,219.0,10.53,219.0,11.5,13.76,47.59359,-54.27349
2021-07-09 21:04:01+00:00,215.0,9.15,210.0,11.76,13.76,47.59359,-54.27349
2021-07-09 21:14:01+00:00,222.0,8.94,228.0,9.63,13.53,47.59359,-54.27349
2021-07-09 21:24:01+00:00,227.0,8.25,226.0,9.55,13.53,47.59359,-54.27349
2021-07-09 21:34:01+00:00,224.0,9.08,229.0,10.29,13.53,47.59359,-54.27349
2021-07-09 21:44:01+00:00,214.0,9.3,209.0,10.41,13.53,47.59359,-54.27349
2021-07-09 21:54:01+00:00,215.0,10.11,217.0,11.54,13.53,47.59359,-54.27349
2021-07-09 22:04:01+00:00,212.0,10.23,215.0,11.57,13.53,47.59359,-54.27349
2021-07-09 22:14:01+00:00,215.0,8.76,214.0,11.03,13.44,47.59359,-54.27349
2021-07-09 22:24:01+00:00,218.0,9.03,223.0,10.19,13.44,47.59359,-54.27349
2021-07-09 22:34:01+00:00,215.0,9.03,214.0,10.43,13.44,47.59359,-54.27349
2021-07-09 22:44:01+00:00,215.0,9.0,216.0,10.3,13.44,47.59359,-54.27349
2021-07-09 22:54:01+00:00,227.0,7.88,235.0,10.02,13.44,47.59359,-54.27349
2021-07-09 23:04:01+00:00,230.0,5.54,232.0,6.4,13.44,47.59359,-54.27349
2021-07-09 23:14:01+00:00,217.0,7.12,225.0,8.9,13.21,47.59359,-54.27349
2021-07-09 23:24:01+00:00,228.0,6.2,235.0,7.18,13.21,47.59359,-54.27349
2021-07-09 23:34:01+00:00,224.0,6.01,221.0,6.82,13.21,47.59359,-54.27349
2021-07-09 23:44:01+00:00,218.0,6.12,218.0,7.15,13.21,47.59359,-54.27349
2021-07-09 23:54:01+00:00,223.0,5.58,227.0,6.72,13.21,47.59359,-54.27349
